Location: Kaarina
(60.4167°N, 22.4167°E)
Time: 22:53:05
(UTC+03:00)

Thor Agena Rocket - Pass Details

Date: 24 August 2019
Orbit: 760 x 807 km, 99.0° (Epoch: 18 October)

Event Time Altitude Azimuth Distance (km) Brightness Sun altitude
Rises 23:15:54 0° 19° (NNE) 3,277 7.3 -13.6°
Reaches altitude 10° 23:18:14 10° 23° (NNE) 2,352 6.5 -13.8°
Maximum altitude 23:23:24 64° 105° (ESE) 874 3.6 -14.1°
Enters shadow 23:27:49 14° 185° (S) 2,068 5.3 -14.4°
